Вернуться в каталог

OV1-2

АктивенВоенныеUNKNOWN
NORAD 1613·PAYLOAD·🇺🇸 United States

Запущен Oct 5, 1965 с Vandenberg Space Force Base

Loading…

Ближайшие Пролёты (ближайшие 24 часа)

TLE

СвежийSource: Space-Track

Эпоха: Sep 13, 2026, 23:43 UTC

1 01613U 65078A   26256.98839224  .00006746  00000-0  64921-3 0  9991
2 01613 144.2279  49.7629 1124780 192.1330 164.9789 13.02001766726297

Отслеживайте OV1-2 в реальном времени с AllMySat

Download on the App Store